Regional Weather Roundup
Issued by NWS

Home | Current Version | Previous Version | Graphics & Text | Print | Product List | Glossary On
Versions: 1 2 3 4 5 6 7 8 9 10 11 12 13 14 15 16 17 18 19 20 21 22 23 24 25 26 27 28 29 30 31 32 33 34 35 36 37 38 39 40 41 42 43 44 45 46 47 48 49 50
899
ASUS45 KCYS 142210
RWRWY

WYOMING REGIONAL WEATHER ROUNDUP
NATIONAL WEATHER SERVICE CHEYENNE WY
300 PM MST THU DEC 14 2017

NOTE:  "FAIR" INDICATES FEW OR NO CLOUDS BELOW 12,000 FEET
WITH NO SIGNIFICANT WEATHER AND/OR OBSTRUCTIONS TO VISIBILITY.

WYZ001-142300-
YELLOWSTONE NATIONAL PARK

CITY           SKY/WX    TMP DP  RH WIND       PRES   REMARKS
LK YELLOWSTONE   N/A     23  18  81 CALM      30.33F
W YELLOWSTONE  NOT AVBL

$$
WYZ002>013-054>058-071-098>099-142300-
NORTHERN WYOMING

CITY           SKY/WX    TMP DP  RH WIND       PRES   REMARKS
JACKSON        FAIR      33  17  51 CALM      30.35F
CODY           FAIR      40  15  36 S9        30.23F WCI  34
GREYBULL       FAIR      44  19  36 VRB3      30.23F
WORLAND        FAIR      42  20  41 NE3       30.25F
SHERIDAN       FAIR      42  22  44 NW14G24   30.20F
BUFFALO        FAIR      39  17  41 N12       30.21S WCI  32
GILLETTE       FAIR      34  23  64 NW16      30.20F WCI  24
HULETT         CLOUDY    30  21  69 W7        30.21F WCI  23
NEWCASTLE      CLOUDY    30  21  69 NW17G24   30.21S WCI  18

$$
WYZ014>020-022>026-101>103-142300-
CENTRAL WYOMING

CITY           SKY/WX    TMP DP  RH WIND       PRES   REMARKS
BIG PINEY      FAIR      35  15  44 S6        30.27F WCI  30
PINEDALE       FAIR      28  23  80 SE6       30.28R WCI  22
DUBOIS         FAIR      37   0  20 NW16G28   30.22R WCI  28
LANDER         FAIR      34  22  61 SE12      30.25F WCI  25
RIVERTON       FAIR      34  19  54 SW6       30.27S WCI  29
CASPER         FAIR      31  21  66 SW9       30.23F WCI  23
DOUGLAS        FAIR      35  18  49 NW15      30.22F WCI  25

$$
WYZ021-027>030-104>119-142300-
SOUTHERN WYOMING

CITY           SKY/WX    TMP DP  RH WIND       PRES   REMARKS
EVANSTON       FAIR      36  19  50 N5        30.34R WCI  32
FORT BRIDGER   FAIR      38  16  39 W17G24    30.33S WCI  29
ROCK SPRINGS   FAIR      35  17  47 W16       30.28F WCI  25
DIXON          CLOUDY    34  20  57 W7        30.33R WCI  28
RAWLINS        FAIR      28  19  69 W12       30.27S WCI  18
SARATOGA       FAIR      28  19  69 W7        30.29S WCI  21
LARAMIE        FAIR      23  16  74 NW23      30.19S WCI   7
CHEYENNE       CLOUDY    27  22  81 N13       30.18S WCI  16
TORRINGTON     PTSUNNY   34  21  59 N13G26    30.21R WCI  25
PINE BLUFFS    CLOUDY    32  21  64 NW22G32   30.20S WCI  19

$$




USA.gov is the U.S. government's official web portal to all federal, state and local government web resources and services.